Location: Caltech
(34.1382°N, 118.1253°W)
Time: 16:57:03
(UTC-07:00)

Cosmos 2084 - Visible Passes

Search period start: 21 August 2014 00:00
Search period end: 31 August 2014 00:00
Orbit: 573 x 627 km, 62.8° (Epoch: 21 August)

Date Brightness Start Highest point End Pass type
(mag) Time Alt. Az. Time Alt. Az. Time Alt. Az.
28 Aug 6.2 05:15:37 10° SSE 05:18:18 16° ESE 05:21:01 10° ENE visible
29 Aug 5.2 05:25:26 10° S 05:29:18 32° ESE 05:33:14 10° NE visible
30 Aug 3.8 05:36:06 10° SSW 05:40:24 68° ESE 05:44:47 10° NE visible
